Miscellaneous Local Product
Issued by NWS North Platte, NE

Home | Current Version | Previous Version | Text Only | Print | Product List | Glossary On
Versions: 1 2 3 4 5 6 7 8 9 10 11 12 13 14 15 16 17 18 19 20 21 22 23 24 25 26 27 28 29 30 31 32 33 34 35 36 37 38 39 40 41 42 43 44 45 46 47 48 49 50
000
AXUS43 KLBF 250610
MISLBF


WESTERN AND NORTH CENTRAL NEBRASKA HOURLY WEATHER ROUNDUP
NATIONAL WEATHER SERVICE NORTH PLATTE NE
100 AM CDT SAT MAR 25 2017

NOTE: "FAIR" INDICATES FEW OR NO CLOUDS BELOW 12,000 FEET WITH NO
SIGNIFICANT WEATHER AND/OR OBSTRUCTIONS TO VISIBILITY.

NOTE: STATIONS NOT REPORTING VARIABLES SUCH AS SKY/WEATHER OR
PRESSURE ARE PROVIDED BY RAWS AND APRS NETWORKS AND ARE NOT UNDER
NATIONAL WEATHER SERVICE QUALITY CONTROL.

...OBSERVATIONS IN AND NEAR THE EASTERN PANHANDLE OF NEBRASKA...

CITY           SKY/WX    TMP DP  RH WIND       PRES   REMARKS
PINE RIDGE     CLEAR     45  31  58 CALM      30.09F
CHADRON        CLEAR     42  29  59 SE9       30.08S
ALLIANCE       CLEAR     28  24  85 CALM      30.09F
SIDNEY         CLEAR     24  22  91 NW3       30.11F
$$

...OBSERVATIONS IN NORTHERN NEBRASKA AND FAR SOUTHERN SOUTH DAKOTA...

CITY           SKY/WX    TMP DP  RH WIND       PRES   REMARKS
WINNER         FAIR      32  29  88 CALM      30.13S
VALENTINE      CLEAR     31  26  82 W7        30.12S WCI  24
THEDFORD       CLEAR     35  30  80 NW7       30.11R WCI  29
AINSWORTH      CLEAR     32  29  90 NW6       30.10S WCI  26
O`NEILL        CLOUDY    38  37  95 N13       30.08F WCI  30
ORD            CLOUDY    41  37  86 N14       30.04F
BROKEN BOW     CLOUDY    39  36  89 N12       30.03F WCI  32
VALENTINE NWR    N/A     37  29  73 NE3         N/A
HALSEY           N/A     34  30  85 N6          N/A  WCI  29
BUTTE            N/A     34  31  90 NE12        N/A  WCI  25
CHAMBERS         N/A     38  36  93 N3          N/A
EWING            N/A     36  35  96 NE7         N/A  WCI  30
$$

...OBSERVATIONS IN SOUTHWEST NEBRASKA AND FAR NORTHEAST COLORADO...

CITY           SKY/WX    TMP DP  RH WIND       PRES   REMARKS
HOLYOKE        FAIR      36  32  87 NW7       30.10F WCI  30
IMPERIAL       CLEAR     37  31  78 N9        30.08F WCI  30
OGALLALA       CLEAR     38  32  77 W5        30.10F WCI  35
NORTH PLATTE   CLOUDY    37  32  82 NW6       30.06F WCI  32
MCCOOK         CLOUDY    42  40  92 N6        30.05F
LEXINGTON      CLOUDY    42  38  86 N9        30.04S
STAPLETON        N/A     34  32  92 CALM        N/A
GOTHENBURG       N/A     43  37  80 NW3         N/A
CALLAWAY         N/A     41  37  87 N12         N/A
$$

...OBSERVATIONS IN CENTRAL LINCOLN COUNTY AREA...

CITY           SKY/WX    TMP DP  RH WIND       PRES   REMARKS
N.P. AIRPORT   CLOUDY    37  32  82 NW6       30.06F WCI  32
N.P. DOWNTOWN    N/A     37  32  82 W3          N/A
N.P. SOUTHEAST   N/A     38  31  77 NW3         N/A
N.P. HILLCREST   N/A     37  32  82 N9          N/A  WCI  30
$$

...SOME OBSERVATIONS FROM AROUND THE REGION...

CITY           SKY/WX    TMP DP  RH WIND       PRES   REMARKS
DENVER         CLEAR     32  28  85 S10       30.11F WCI  24
LIMON          CLEAR     32  29  88 NW5       30.13F WCI  27
ASPEN          CLOUDY    32  25  75 S6        30.21R WCI  26
LARAMIE        CLOUDY    27  20  75 S9        30.11S WCI  18
GILLETTE       CLOUDY    44  28  53 S20       29.91F
CHEYENNE       CLOUDY    30  23  75 SW8       30.11F WCI  22
SCOTTSBLUFF    CLEAR     34  27  75 E5        30.10F WCI  30
GRAND ISLAND   CLOUDY    39  39 100 N18G25    30.00F FOG     WCI  30
OMAHA          CLOUDY    42  37  82 N14       29.95F
SIOUX FALLS    CLOUDY    37  34  89 NE13      30.11F WCI  29
PIERRE         CLEAR     30  27  88 NE5       30.14F WCI  25
RAPID CITY     CLEAR     38  29  70 S13       30.05F WCI  30
BISMARCK       CLEAR     30  28  92 E8        30.14S WCI  22
KANSAS CITY    CLOUDY    57  57 100 NE8       29.79F FOG
HILL CITY      CLOUDY    43  40  89 N15       30.03S
WICHITA        CLOUDY    47  47 100 N18       29.84F
DODGE CITY     CLOUDY    41  40  96 N21G28    30.00S
OKLAHOMA CITY  LGT RAIN  53  50  89 NW25G33   29.79R
DALLAS         CLEAR     66  42  41 W17       29.86R
AMARILLO       PTCLDY    40  36  86 NW14      30.08S WCI  32
$$




USA.gov is the U.S. government's official web portal to all federal, state and local government web resources and services.